CZ-6A DEB, 64662

Orbit data source: Space-Track

CZ-6A DEB, 64662 is space debris in LEO originally from a launch on Tue, 06 Aug 2024 UTC launched from the Taiyaun Space Center, China (TSC). Debris objects in space refer to the collection of defunct objects orbiting the Earth. Examples of debris include non-operational satellites, rocket bodies, and fragments generated from explosions, collisions, or faulty payload assembly.

Loading next visibility...
Identifier
64662, 2024-140AFC
Orbit
LEO
Country
Flag of CNCN / PRC
Related business
Manufacturer
SAST
Mission
Spacecraft
Bus & Motor
Unknown
Mass
Unknown
Launch date (UTC)
2024-08-06 (2 years ago)
Launch vehicle
Unknown
Launch site
Taiyaun Space Center, China (TSC)
Object type
Payload
Rocket body
Debris
Shape & HBR
Unknown shape, 0.1 m
Radar Cross Section
Small (<0.1 m²)

Expand to show TLE details & history
Last TLE update: 13 hours ago

TLE from 13 hours ago
0 CZ-6A DEB
1 64662U 24140AFC 26171.32030824  .00000206  00000-0  89327-4 0  9995
2 64662  88.9998 274.2100 0047044 196.9080 163.0545 14.20006045 84902
Epoch: 2026-06-20T07:41Z
TLE epoch observation values (Epoch: 2026-06-20T07:41:14.631Z)
Latitude
-0.00005°
Longitude
-109.63759°
Altitude
860.822 km
Speed
7.405 km/s
True Right ascension
18h 16m 50s
True Declination
0° 00' 00"
Sunlit
Object was in full shadow at epoch
Visualization orbit readout
Latitude
Unknown
Longitude
Unknown
Altitude
Unknown
Speed
Unknown
Apparent Right ascension
Unknown
Apparent Declination
Unknown
Sunlit
N/A
Visualization observer readout
Local Sidereal Time
07:22:37
Azimuth
Unknown
Elevation
Unknown
Doppler factor
Unknown
Orbital elements
Apogee altitude
856.157 km
Perigee altitude
788.41 km
Semi-major axis
7,200.42 km
Eccentricity
0.0047
Inclination
88.9998°
RAAN
274.21°
Arg. of periapsis
196.908°
True anomaly
163.21074°
Mean anomaly
163.0545°
Eccentric anomaly
163.13271°
Mean motion
3.55227 °/min
Orbital period
101.34 mins
BSTAR
0.000089327
Loading maneuver chart data...
Computing Atmospheric mass density...
Loading historical data...
Loading historical data...
Loading historical data...
Loading historical data...
Loading historical data...
Loading historical data...
Loading historical data...

Documentation

Showing up to 5 results
|